Content
SEND FEEDBACK

Daily
Averages
Monthly
Summary
United States of America

EATON RAPIDS, MICHIGAN


Home > North America > United States > Michigan
Elevation: 880 feet     Latitude: 42 31N     Longitude: 084 39W

WEATHER
 
SELECT A DAY
Number of Records: 303,576;   Date Range: 12/27/01 - 4/18/14
 
SHARE

PRINT THIS DATA

[ ← Previous Day ]
WEATHER ALMANAC - JANUARY 3, 2013
[ Next Day → ]
[ °C ]   °F
Weather ElementAverageHighLow
Temperature24.5 °F30.2 °F (3:56 pm)14.5 °F (1:55 am)
Dewpoint19.7 °F27 °F (3:15 pm)8.6 °F (4:15 am)
Humidity82.1 %92 % (12:35 am)67 % (4:15 am)
Barometer30.07 in30.14 in (7:58 pm)30.03 in (6:35 am)
Wind Speed7.5 mph12.7 mph (11:55 am)
Wind Gust19.6 mph (6:16 pm)
Weather ElementAverage
Visibility7.3 mi
Wind DirectionSW (222.2 °)

Weather ElementTotal
Precipitation---
Heating Degree Days42.7 (Base 65)
Averaged from 69 records on January 3, 2013
WEATHER CONDITIONS BREAKOUT
WIND DIRECTION BREAKOUT
WEATHER BY HOUR - JANUARY 3, 2013
[ °C ]   °F
Local TimeTemperatureDewpointHumidityBarometerVisibilityWind DirectionWind SpeedGust SpeedPrecipitationEventsConditions
12:35 AM15.8 °F13.8 °F92 %30.10 in10.0 miSouth (180°)5.8 mphClear
12:55 AM15.4 °F13.1 °F90 %30.10 in10.0 miSouth (180°)4.6 mphClear
1:15 AM15.1 °F12.7 °F90 %30.09 in10.0 miSouth (190°)5.8 mphClear
1:35 AM14.9 °F12.2 °F89 %30.09 in10.0 miSouth (190°)4.6 mphClear
1:55 AM14.5 °F11.5 °F88 %30.09 in10.0 miSouth (180°)4.6 mphScattered Clouds
2:15 AM15.6 °F12.2 °F86 %30.09 in10.0 miCalmMostly Cloudy
2:35 AM17.1 °F11.8 °F80 %30.09 in10.0 miSouth (190°)5.8 mphOvercast
2:55 AM17.6 °F10.6 °F74 %30.09 in10.0 miSouth (190°)5.8 mphOvercast
3:15 AM17.6 °F9.5 °F71 %30.08 in10.0 miSouth (190°)6.9 mphOvercast
3:35 AM18.0 °F9.3 °F69 %30.08 in10.0 miSouth (190°)8.1 mphOvercast
3:55 AM18.0 °F9.5 °F70 %30.07 in10.0 miSouth (190°)8.1 mphOvercast
4:15 AM18.0 °F8.6 °F67 %30.06 in10.0 miSouth (190°)8.1 mphOvercast
4:35 AM18.1 °F9.1 °F68 %30.06 in10.0 miSSW (200°)6.9 mphOvercast
4:55 AM18.1 °F9.3 °F68 %30.05 in10.0 miSouth (190°)6.9 mphOvercast
5:15 AM18.1 °F9.5 °F69 %30.05 in10.0 miSouth (190°)6.9 mphOvercast
5:35 AM18.3 °F9.5 °F68 %30.04 in10.0 miSouth (190°)5.8 mphOvercast
5:55 AM18.3 °F10.0 °F70 %30.04 in10.0 miSSW (200°)6.9 mphOvercast
6:15 AM18.3 °F10.2 °F71 %30.04 in10.0 miSSW (200°)6.9 mphOvercast
6:35 AM18.5 °F10.6 °F71 %30.03 in10.0 miSSW (200°)6.9 mphSnowLight Snow
6:55 AM18.5 °F11.7 °F75 %30.03 in7.0 miSSW (200°)8.1 mphSnowLight Snow
7:15 AM18.7 °F11.8 °F75 %30.03 in10.0 miSSW (200°)6.9 mphOvercast
7:35 AM19.4 °F12.2 °F74 %30.03 in10.0 miSSW (200°)9.2 mphOvercast
7:55 AM19.8 °F13.1 °F75 %30.03 in10.0 miSSW (210°)9.2 mphOvercast
8:35 AM20.7 °F14.4 °F77 %30.03 in10.0 miSSW (200°)8.1 mphOvercast
8:55 AM21.2 °F15.3 °F78 %30.04 in10.0 miSW (220°)6.9 mphOvercast
9:15 AM21.9 °F16.3 °F79 %30.04 in10.0 miSSW (210°)8.1 mphOvercast
9:35 AM22.5 °F17.4 °F81 %30.04 in7.0 miSSW (210°)6.9 mphOvercast
9:55 AM23.2 °F18.5 °F82 %30.04 in7.0 miSSW (210°)9.2 mphOvercast
10:15 AM23.9 °F19.4 °F83 %30.05 in7.0 miSSW (210°)8.1 mphOvercast
10:35 AM24.4 °F20.3 °F84 %30.05 in4.0 miSW (220°)8.1 mphOvercast
10:55 AM24.6 °F21.0 °F86 %30.06 in3.0 miSW (220°)6.9 mphOvercast
11:15 AM25.5 °F22.1 °F87 %30.06 in5.0 miWSW (240°)9.2 mphOvercast
11:35 AM26.1 °F22.8 °F88 %30.05 in5.0 miSW (230°)10.4 mphOvercast
11:55 AM26.6 °F23.2 °F87 %30.04 in5.0 miSW (220°)12.7 mphOvercast
12:15 PM26.6 °F23.4 °F88 %30.03 in5.0 miSW (230°)9.2 mphOvercast
12:35 PM27.1 °F23.9 °F88 %30.03 in5.0 miSW (230°)10.4 mphOvercast
12:55 PM27.5 °F24.4 °F88 %30.03 in5.0 miSW (230°)9.2 mphOvercast
1:15 PM27.5 °F24.8 °F90 %30.03 in5.0 miWSW (240°)8.1 mphOvercast
1:35 PM28.0 °F25.3 °F90 %30.03 in4.0 miSW (220°)8.1 mphOvercast
1:55 PM28.4 °F25.7 °F90 %30.03 in4.0 miSW (220°)6.9 mphOvercast
2:15 PM28.4 °F26.1 °F91 %30.03 in4.0 miSW (230°)6.9 mphOvercast
2:35 PM28.9 °F26.4 °F90 %30.03 in4.0 miSW (220°)9.2 mphOvercast
2:55 PM28.9 °F26.6 °F91 %30.04 in3.0 miSW (220°)9.2 mphOvercast
3:15 PM29.1 °F27.0 °F92 %30.05 in4.0 miSW (230°)6.9 mphOvercast
3:21 PM29.3 °F27.0 °F91 %30.05 in4.0 miWSW (240°)6.9 mphOvercast
3:56 PM30.2 °F26.6 °F86 %30.06 in4.0 miWest (260°)8.1 mphOvercast
4:16 PM30.2 °F26.6 °F86 %30.06 in5.0 miWest (260°)11.5 mph17.3 mphOvercast
4:36 PM30.2 °F26.6 °F86 %30.07 in5.0 miWest (260°)8.1 mphOvercast
4:56 PM30.2 °F26.6 °F86 %30.07 in5.0 miWest (260°)8.1 mphOvercast
5:16 PM30.2 °F26.6 °F86 %30.08 in5.0 miWest (270°)11.5 mph16.1 mphOvercast
5:56 PM30.2 °F26.6 °F86 %30.10 in7.0 miWest (270°)11.5 mph18.4 mphOvercast
6:16 PM30.2 °F26.6 °F86 %30.11 in7.0 miWest (280°)12.7 mph19.6 mphOvercast
6:36 PM30.2 °F24.8 °F80 %30.11 in7.0 miWest (270°)8.1 mphOvercast
6:56 PM30.2 °F24.8 °F80 %30.13 in7.0 miWest (280°)8.1 mph16.1 mphOvercast
7:16 PM30.2 °F24.8 °F80 %30.13 in7.0 miWest (280°)8.1 mphOvercast
7:36 PM30.2 °F24.8 °F80 %30.13 in7.0 miWest (280°)8.1 mphOvercast
7:58 PM30.2 °F24.8 °F80 %30.14 in7.0 miWest (270°)6.9 mphOvercast
8:16 PM30.2 °F24.8 °F80 %30.14 in7.0 miWest (270°)4.6 mphOvercast
8:36 PM30.2 °F24.8 °F80 %30.13 in7.0 miWSW (250°)5.8 mphOvercast
8:56 PM30.2 °F24.8 °F80 %30.13 in7.0 miWSW (250°)3.5 mphOvercast
9:16 PM28.4 °F24.8 °F86 %30.13 in7.0 miWSW (250°)4.6 mphOvercast
9:36 PM28.4 °F24.8 °F86 %30.13 in7.0 miWSW (250°)5.8 mphOvercast
9:56 PM28.4 °F24.8 °F86 %30.13 in7.0 miWSW (240°)4.6 mphOvercast
10:16 PM28.4 °F24.8 °F86 %30.13 in7.0 miSW (230°)8.1 mphOvercast
10:36 PM30.2 °F26.6 °F86 %30.13 in7.0 miWSW (250°)6.9 mphOvercast
10:56 PM30.2 °F26.6 °F86 %30.12 in7.0 miWSW (240°)6.9 mphOvercast
11:16 PM30.2 °F26.6 °F86 %30.11 in7.0 miWSW (240°)9.2 mphOvercast
11:36 PM30.2 °F26.6 °F86 %30.11 in7.0 miWSW (240°)6.9 mphOvercast
11:56 PM30.2 °F26.6 °F86 %30.11 in7.0 miWSW (240°)6.9 mphOvercast
Hourly data recorded from KFPK, located 9.13 miles away from Eaton Rapids, Michigan







STORIES FROM OUR PARTNERS